Weather History for Illesheim, Germany

Change the Weather History Date:

Sunday, December 9, 2012

  Actual Average Record
Temperature  
Mean Temperature 20 °F -  
Max Temperature 34 °F - - ()
Min Temperature 6 °F - - ()
Degree Days  
Heating Degree Days 45    
Moisture  
Dew Point 26 °F    
Average Humidity 99    
Maximum Humidity 100    
Minimum Humidity 92    
Precipitation  
Precipitation 0.00 in - - ()
Sea Level Pressure  
Sea Level Pressure 30.04 in    
Wind  
Wind Speed 13 mph ()    
Max Wind Speed 25 mph    
Max Gust Speed 36 mph    
Visibility 4.2 miles    
Events Rain , Snow    
T = Trace of Precipitation, MM = Missing Value Source: Averaged Metar Reports

Daily Weather History Graph

Daily Weather History Graph

Search for Another Location

Airport:

Trip Planner

Search our weather history database for the weather conditions in past years. The results will help you decide how hot, cold, wet, or windy it might be!

Date:

Astronomy

Dec. 09, 2012 Rise Set
Actual Time 8:02 AM CET 4:19 PM CET
Civil Twilight 7:25 AM CET 4:56 PM CET
Nautical Twilight 6:44 AM CET 5:37 PM CET
Astronomical Twilight 6:05 AM CET 6:16 PM CET
Moon 2:56 AM CET (12/9) 1:32 PM CET (12/9)
Length of Visible Light 9h 31m
Length of Day
8h 16m
Waning Crescent, 21% of the Moon is Illuminated
Dec 9
Waning Crescent
Dec 13
New
Dec 20
First Quarter
Dec 28
Full
Jan 5
Last Quarter

Hourly Weather History & Observations

Time (CET) Temp. Windchill Dew Point Humidity Pressure Visibility Wind Dir Wind Speed Gust Speed Precip Events Conditions
12:53 AM 8.6 °F - 6.8 °F 92% 30.26 in 3.7 mi NNE 1.2 mph - N/A   Clear
12:55 AM 6.8 °F - 6.8 °F 100% 30.26 in 5.0 mi NE 1.2 mph - N/A   Clear
12:58 AM 7.0 °F - 6.4 °F 98% 30.37 in 5.0 mi NE 1.2 mph - N/A   Clear
1:41 AM 6.8 °F - 6.8 °F 100% 30.26 in 3.7 mi West 2.3 mph - N/A   Clear
1:58 AM 9.5 °F -3.5 °F 9.1 °F 98% 30.36 in 3.7 mi WSW 9.2 mph - N/A   Clear
1:59 AM 10.4 °F -2.4 °F 10.4 °F 100% 30.26 in 5.0 mi WSW 9.2 mph - N/A   Clear
2:02 AM 12.2 °F -1.0 °F 12.2 °F 100% 30.26 in 5.6 mi WSW 10.4 mph - N/A   Partly Cloudy
2:12 AM 17.6 °F 7.3 °F 17.6 °F 100% 30.26 in 6.2 mi SW 8.1 mph - N/A   Mostly Cloudy
2:15 AM 17.6 °F 7.3 °F 17.6 °F 100% 30.26 in 5.6 mi SW 8.1 mph - N/A   Mostly Cloudy
2:27 AM 19.4 °F 8.6 °F 19.4 °F 100% 30.26 in 6.2 mi SW 9.2 mph - N/A   Overcast
2:58 AM 18.9 °F 10.8 °F 18.9 °F 100% 30.35 in 6.2 mi SW 5.8 mph - N/A   Overcast
3:56 AM 21.2 °F 7.8 °F 21.2 °F 100% 30.24 in 6.2 mi WSW 15.0 mph - N/A   Overcast
3:58 AM 21.7 °F 9.0 °F 21.7 °F 100% 30.33 in 6.2 mi WSW 13.8 mph - N/A   Overcast
4:18 AM 21.2 °F 8.9 °F 21.2 °F 100% 30.24 in 6.2 mi WSW 12.7 mph - N/A   Mostly Cloudy
4:58 AM 21.6 °F 8.8 °F 21.6 °F 100% 30.33 in 6.2 mi WSW 13.8 mph - N/A   Mostly Cloudy
5:58 AM 19.9 °F 13.4 °F 19.9 °F 100% 30.32 in 6.2 mi West 4.6 mph - N/A   Partly Cloudy
6:58 AM 21.7 °F 10.8 °F 21.7 °F 100% 30.30 in 6.2 mi WSW 10.4 mph - N/A   Clear
7:58 AM 23.5 °F 13.0 °F 23.5 °F 100% 30.29 in 6.2 mi WSW 10.4 mph - N/A   Overcast
8:58 AM 24.8 °F 10.0 °F 24.4 °F 99% 30.28 in 6.2 mi WSW 21.9 mph 24.2 mph N/A   Overcast
9:58 AM 25.3 °F 10.3 °F 25.2 °F 99% 30.25 in 6.2 mi WSW 23.0 mph 32.2 mph N/A   Mostly Cloudy
10:58 AM 26.6 °F 12.7 °F 26.6 °F 100% 30.22 in 6.2 mi WSW 20.7 mph - N/A   Overcast
11:07 AM 28.4 °F 15.8 °F 26.6 °F 93% 30.11 in 6.2 mi SW 18.4 mph - N/A   Mostly Cloudy
11:15 AM 28.4 °F 15.4 °F 26.6 °F 93% 30.10 in 3.7 mi SW 19.6 mph - N/A Snow Light Snow
11:18 AM 28.4 °F 15.8 °F 26.6 °F 93% 30.10 in 2.5 mi SW 18.4 mph - N/A Snow Light Snow
11:22 AM 28.4 °F 17.0 °F 26.6 °F 93% 30.10 in 1.7 mi SW 15.0 mph - N/A Snow Light Snow
11:46 AM 26.6 °F 13.4 °F 26.6 °F 100% 30.08 in - SW 18.4 mph 27.6 mph N/A Snow Light Snow
11:51 AM 26.6 °F 13.8 °F 26.6 °F 100% 30.08 in 3.1 mi SW 17.3 mph 27.6 mph N/A   Overcast
11:58 AM 27.1 °F 15.4 °F 27.0 °F 99% 30.17 in 3.7 mi SW 15.0 mph 25.3 mph 0.00 in   Overcast
12:03 PM 26.6 °F 14.3 °F 26.6 °F 100% 30.07 in 5.0 mi SW 16.1 mph 23.0 mph N/A   Overcast
12:23 PM 26.6 °F 12.7 °F 26.6 °F 100% 30.05 in 3.7 mi SW 20.7 mph 26.5 mph N/A   Overcast
12:28 PM 26.6 °F 13.8 °F 26.6 °F 100% 30.05 in 2.5 mi SW 17.3 mph 26.5 mph N/A   Overcast
12:31 PM 26.6 °F 14.7 °F 26.6 °F 100% 30.05 in 3.1 mi SW 15.0 mph 26.5 mph N/A   Overcast
12:37 PM 26.6 °F 14.7 °F 26.6 °F 100% 30.05 in 5.0 mi SW 15.0 mph 25.3 mph N/A   Overcast
12:43 PM 26.6 °F 13.8 °F 26.6 °F 100% 30.04 in 3.7 mi SW 17.3 mph - N/A   Overcast
12:58 PM 27.1 °F 14.5 °F 26.8 °F 99% 30.13 in 3.7 mi SSW 17.3 mph - 0.00 in   Overcast
1:04 PM 26.6 °F 13.4 °F 26.6 °F 100% 30.02 in 2.5 mi SSW 18.4 mph 23.0 mph N/A   Overcast
1:20 PM 26.6 °F 14.3 °F 26.6 °F 100% 30.01 in 1.7 mi SSW 16.1 mph 23.0 mph N/A   Overcast
1:51 PM 28.4 °F 17.0 °F 28.4 °F 100% 29.98 in - SW 15.0 mph 24.2 mph N/A Snow Light Snow
1:58 PM 27.7 °F 15.6 °F 27.7 °F 100% 30.06 in 2.5 mi SW 16.1 mph 20.7 mph 0.00 in Snow Light Snow
2:09 PM 28.4 °F 17.5 °F 28.4 °F 100% 29.96 in 3.1 mi SSW 13.8 mph 24.2 mph N/A Snow Light Snow
2:17 PM 28.4 °F 17.0 °F 28.4 °F 100% 29.96 in 2.5 mi SW 15.0 mph - N/A Snow Light Snow
2:24 PM 28.4 °F 18.0 °F 28.4 °F 100% 29.96 in 1.7 mi SW 12.7 mph 20.7 mph N/A Snow Light Snow
2:45 PM 28.4 °F 16.6 °F 28.4 °F 100% 29.95 in - SW 16.1 mph 23.0 mph N/A Snow Light Snow
2:58 PM 28.4 °F 16.2 °F 28.4 °F 100% 30.04 in 3.1 mi SW 17.3 mph 23.0 mph 0.00 in Snow Light Snow
3:05 PM 28.4 °F 16.2 °F 28.4 °F 100% 29.95 in 2.5 mi SW 17.3 mph 24.2 mph N/A Snow Light Snow
3:10 PM 28.4 °F 15.1 °F 28.4 °F 100% 29.94 in 1.7 mi SW 20.7 mph 27.6 mph N/A Snow Light Snow
3:19 PM 28.4 °F 14.4 °F 28.4 °F 100% 29.93 in 1.0 mi SW 23.0 mph 28.8 mph N/A Snow Light Snow
3:26 PM 28.4 °F 15.8 °F 28.4 °F 100% 29.93 in 1.2 mi SW 18.4 mph 28.8 mph N/A Snow Light Snow
3:27 PM 28.4 °F 15.1 °F 28.4 °F 100% 29.93 in 1.2 mi SW 20.7 mph 28.8 mph N/A Snow Light Snow
3:28 PM 28.4 °F 14.4 °F 28.4 °F 100% 29.93 in 1.2 mi SW 23.0 mph 28.8 mph N/A Snow Light Snow
3:29 PM 28.4 °F 14.4 °F 28.4 °F 100% 29.93 in 1.2 mi SW 23.0 mph 27.6 mph N/A Snow Light Snow
3:35 PM 30.2 °F 17.4 °F 30.2 °F 100% 29.93 in - SW 20.7 mph 27.6 mph N/A Snow Light Snow
3:40 PM 30.2 °F 17.1 °F 30.2 °F 100% 29.92 in 3.1 mi SW 21.9 mph 27.6 mph N/A Snow Light Snow
3:52 PM 30.2 °F 16.8 °F 30.2 °F 100% 29.92 in 2.5 mi SW 23.0 mph 31.1 mph N/A Snow Light Snow
3:58 PM 29.8 °F 17.7 °F 29.8 °F 100% 29.99 in 2.5 mi SW 18.4 mph 31.1 mph 0.00 in Snow Light Snow
4:09 PM 30.2 °F 17.1 °F 30.2 °F 100% 29.91 in 1.7 mi SW 21.9 mph 31.1 mph N/A Snow Light Snow
4:49 PM 30.2 °F 18.1 °F 30.2 °F 100% 29.90 in - SW 18.4 mph - N/A Snow Light Snow
4:58 PM 30.0 °F 17.5 °F 30.0 °F 100% 29.98 in 2.5 mi SW 19.6 mph - 0.00 in Snow Light Snow
5:01 PM 30.2 °F 18.1 °F 30.2 °F 100% 29.90 in 3.1 mi SW 18.4 mph - N/A Snow Light Snow
5:19 PM 32.0 °F 19.5 °F 32.0 °F 100% 29.89 in 2.5 mi SW 21.9 mph - N/A Snow Light Snow
5:48 PM 32.0 °F 19.2 °F 32.0 °F 100% 29.88 in 3.1 mi WSW 23.0 mph 32.2 mph N/A   Overcast
5:58 PM 31.5 °F 17.9 °F 31.5 °F 100% 29.94 in 3.7 mi WSW 25.3 mph 35.7 mph 0.00 in   Overcast
6:08 PM 32.0 °F 19.2 °F 32.0 °F 100% 29.87 in 5.0 mi WSW 23.0 mph 32.2 mph N/A   Light Drizzle
6:22 PM 32.0 °F 18.6 °F 32.0 °F 100% 29.87 in 3.7 mi WSW 25.3 mph 31.1 mph N/A Snow Light Snow
6:34 PM 32.0 °F 19.2 °F 32.0 °F 100% 29.87 in 5.0 mi WSW 23.0 mph 33.4 mph N/A Snow Light Snow
6:47 PM 32.0 °F 19.2 °F 32.0 °F 100% 29.87 in 3.7 mi WSW 23.0 mph 31.1 mph N/A Snow Light Snow
6:49 PM 32.0 °F 19.5 °F 32.0 °F 100% 29.87 in 5.0 mi WSW 21.9 mph - N/A Snow Light Snow
6:58 PM 32.5 °F 20.5 °F 32.5 °F 100% 29.94 in 6.2 mi WSW 20.7 mph 28.8 mph 0.00 in Rain Light Rain
7:58 PM 33.1 °F 20.6 °F 33.1 °F 100% 29.92 in 6.2 mi WSW 23.0 mph - 0.00 in   Light Drizzle
8:36 PM 32.0 °F 19.2 °F 32.0 °F 100% 29.84 in 6.2 mi WSW 23.0 mph 32.2 mph N/A Rain Light Rain
8:43 PM 32.0 °F 18.9 °F 32.0 °F 100% 29.83 in 3.7 mi SW 24.2 mph 32.2 mph N/A Snow Light Snow
8:46 PM 32.0 °F 18.9 °F 32.0 °F 100% 29.84 in 5.0 mi SW 24.2 mph 31.1 mph N/A Snow Light Snow
8:58 PM 33.3 °F 20.6 °F 33.3 °F 100% 29.90 in 6.2 mi SW 24.2 mph - 0.00 in Rain Light Rain
9:28 PM 32.0 °F 18.9 °F 32.0 °F 100% 29.83 in 6.2 mi WSW 24.2 mph 27.6 mph N/A   Overcast
9:58 PM 33.8 °F 21.9 °F 33.8 °F 100% 29.88 in 6.2 mi WSW 21.9 mph 28.8 mph 0.00 in   Overcast
9:59 PM 33.8 °F 22.2 °F 33.8 °F 100% 29.82 in 6.2 mi WSW 20.7 mph 28.8 mph N/A Rain Light Rain
10:20 PM 33.8 °F 21.6 °F 33.8 °F 100% 29.81 in 6.2 mi WSW 23.0 mph - N/A   Overcast
10:58 PM 34.3 °F 22.6 °F 34.3 °F 100% 29.86 in 6.2 mi SW 21.9 mph 31.1 mph 0.00 in   Overcast
11:58 PM 34.7 °F 23.1 °F 34.7 °F 100% 29.84 in 6.2 mi WSW 21.9 mph 34.5 mph N/A   Overcast